Flag for Brazil Weather past 2 weeks in Rio Branco, Acre, Brazil

75 °F

Partly cloudy.

Feels Like: 74 °F
Forecast: 74 / 90 °F
Wind: 5 mph from North

Location: Rio Branco Airport

Current Time: Nov 29, 2015 at 3:52:09 AM

Latest Report: Nov 29, 2015 at 3:00 AM

Visibility: N/A

Pressure: 29.77 "Hg

Humidity: 94%

Dew point: 73 °F

Location of Rio BrancoLocation

Historic Weather in Rio Branco — Graph


Rio Branco temperature yesterday

Maximum temperature yesterday: 91 °F (at 12:00 PM)
Minimum temperature yesterday: 73 °F (at 3:00 AM)
Average temperature yesterday: 82 °F

Past Weeks' High & Low Weather Summary

High95 °F (Nov 14, 1:00 PM)100% (Nov 16, 5:00 AM)29.92 "Hg (Nov 16, 5:00 AM)
Low39 °F (Nov 22, 8:00 AM)44% (Nov 15, 2:00 PM)29.62 "Hg (Nov 20, 4:00 PM)
Average82 °F76%29.77 "Hg
* Reported Nov 14 3:00 AM — Nov 29 3:00 AM, Rio Branco, Weather by CustomWeather, © 2015

Note: Actual official high and low records may vary slightly from our data, if they occured in-between our weather recording intervals... More about our weather records


Rio Branco weather history for previous 24 hours

Time TempWeatherWind HumidityBarometerVisibility
3:00 AM
Sun, Nov 29
75 °FPartly cloudy.5 mph94%29.77 "HgN/A
2:00 AM75 °FPartly cloudy.2 mph94%29.77 "HgN/A
1:00 AM75 °FPartly cloudy.5 mph94%29.80 "Hg5 mi
12:00 AM75 °FPartly cloudy.No wind100%29.83 "Hg4 mi
11:00 PM
Sat, Nov 28
75 °FLight rain. Partly cloudy.No wind94%29.86 "Hg3 mi
10:00 PM77 °FThunderstorms. Partly cloudy.2 mph89%N/AN/A
9:00 PM77 °FThundershowers. Passing clouds.3 mph89%N/AN/A
8:00 PM77 °FThunderstorms. Passing clouds.5 mph94%29.80 "HgN/A
7:00 PM82 °FThunderstorms. Passing clouds.8 mph74%29.74 "HgN/A
6:00 PM84 °FThunderstorms. Scattered clouds.7 mph70%29.68 "HgN/A
5:00 PM86 °FPassing clouds.No wind79%29.65 "Hg10 mi
4:00 PM90 °FPassing clouds.3 mph63%29.65 "HgN/A
3:00 PM91 °FPassing clouds.2 mph59%29.65 "HgN/A
2:00 PM91 °FSunny.5 mph56%29.68 "Hg10 mi
1:00 PM90 °FScattered clouds.5 mph59%29.74 "HgN/A
12:00 PM91 °FScattered clouds.6 mph59%29.80 "HgN/A
11:00 AM90 °FScattered clouds.3 mph67%29.83 "HgN/A
10:00 AM88 °FScattered clouds.7 mph66%29.86 "HgN/A
9:00 AM86 °FScattered clouds.6 mph70%29.89 "HgN/A
8:00 AM82 °FSunny.5 mph84%29.86 "Hg10 mi
7:00 AM79 °FPassing clouds.3 mph89%29.83 "HgN/A
6:00 AM75 °FSunny.No wind94%29.80 "Hg10 mi
5:00 AM73 °FFog.No wind100%29.77 "Hg3 mi
4:00 AM73 °FClear.No wind94%29.77 "Hg10 mi
3:00 AM73 °FClear.2 mph100%29.74 "Hg10 mi
Weather by CustomWeather, © 2015

See weather overviewHow to use our weather pages